CW0104 Weather Reports


Display with metric or nautical units.
time (UTC)temp
F
wind
direction
speed
MPH
gust
MPH
rain 1hr
in
rain 24hr
in
rain mn
in
humidity
%
barometer
mb
20210622042759 72 117 0.0 1.0 0.00 0.00 0.00 87 1003.3
20210622042300 72 117 0.0 1.0 0.00 0.00 0.00 87 1003.3
20210622041737 72 117 0.0 1.0 0.00 0.00 0.00 87 1003.7
20210622041237 72 117 0.0 1.0 0.00 0.00 0.00 86 1003.7
20210622040735 72 117 0.0 0.0 0.00 0.00 0.00 86 1003.7
20210622040205 72 117 0.0 1.0 0.00 0.00 0.00 86 1003.9
20210622035645 72 117 0.0 1.0 0.00 0.00 0.00 86 1003.9
20210622035137 73 59 0.0 1.0 0.00 0.00 0.00 86 1003.9
20210622034611 73 59 0.0 0.0 0.00 0.00 0.00 86 1003.7
20210622034105 73 59 0.0 0.0 0.00 0.00 0.00 86 1003.7
20210622033529 73 59 0.0 0.0 0.00 0.00 0.00 85 1003.7
20210622033025 73 59 0.0 1.0 0.00 0.00 0.00 85 1003.6
20210622032513 73 59 0.0 1.0 0.00 0.00 0.00 85 1003.6
20210622031936 73 59 0.0 0.0 0.00 0.00 0.00 85 1003.6
20210622031403 73 59 0.0 1.0 0.00 0.00 0.00 85 1003.9
20210622030902 73 59 0.0 1.0 0.00 0.00 0.00 85 1003.9
20210622030344 73 55 0.0 1.0 0.00 0.00 0.00 85 1003.9
20210622025846 74 210 0.0 1.0 0.00 0.00 0.00 85 1003.6
20210622025338 74 210 0.0 4.0 0.00 0.00 0.00 85 1003.6
20210622024833 74 210 0.0 5.0 0.00 0.00 0.00 85 1003.6
20210622024329 74 225 0.0 5.0 0.00 0.00 0.00 85 1003.5
20210622023827 74 226 0.0 0.0 0.00 0.00 0.00 85 1003.5
20210622023325 74 227 0.0 4.0 0.00 0.00 0.00 85 1003.5
20210622022805 74 231 0.0 4.0 0.00 0.00 0.00 86 1003.4
20210622022305 74 233 0.0 4.0 0.00 0.00 0.00 86 1003.4
20210622021742 74 234 0.0 5.0 0.00 0.00 0.00 86 1003.4
20210622021241 74 234 0.0 5.0 0.00 0.00 0.00 86 1003.5
20210622020735 75 235 0.0 6.0 0.00 0.00 0.00 86 1003.5
20210622020220 75 8 1.0 6.0 0.00 0.00 0.00 86 1003.1
20210622015719 75 223 1.0 9.0 0.00 0.00 0.00 86 1003.1
20210622015155 75 211 3.0 13.0 0.00 0.00 0.00 86 1003.1
20210622014656 75 177 3.0 13.0 0.00 0.00 0.00 86 1003.1
20210622014156 75 231 3.0 8.0 0.00 0.00 0.00 86 1003.1
20210622013657 75 217 3.0 10.0 0.00 0.00 0.00 86 1003.1
20210622013153 76 227 1.0 10.0 0.00 0.00 0.00 86 1003.1
20210622012641 76 206 1.0 9.0 0.00 0.00 0.00 86 1003.1
20210622012135 76 204 1.0 9.0 0.00 0.00 0.00 86 1003.1
20210622011609 76 208 1.0 8.0 0.00 0.00 0.00 86 1003.2
20210622011112 76 166 1.0 8.0 0.00 0.00 0.00 86 1003.2
20210622010552 75 207 1.0 10.0 0.00 0.00 0.00 86 1003.2
20210622010043 75 200 3.0 10.0 0.00 0.00 0.00 86 1003.1
20210622005538 75 192 1.0 6.0 0.00 0.00 0.00 86 1003.1
20210622005030 75 291 1.0 9.0 0.00 0.00 0.00 86 1003.1
20210622004525 75 227 0.0 9.0 0.00 0.00 0.00 86 1003.0
20210622004014 75 182 1.0 5.0 0.00 0.00 0.00 86 1003.0
20210622003513 75 182 1.0 5.0 0.00 0.00 0.00 86 1003.0
20210622003008 75 208 1.0 5.0 0.00 0.00 0.00 86 1002.8
20210622002502 75 208 1.0 8.0 0.00 0.00 0.00 86 1002.8
20210622001958 76 223 1.0 8.0 0.00 0.00 0.00 85 1002.8
20210622001444 76 225 1.0 6.0 0.00 0.00 0.00 85 1003.0
20210622000943 76 228 1.0 6.0 0.00 0.00 0.00 85 1003.0
20210622000438 76 163 1.0 5.0 0.00 0.00 0.00 84 1003.0
20210621235930 76 221 1.0 9.0 0.00 0.00 0.00 84 1003.0
20210621235425 76 222 1.0 9.0 0.00 0.00 0.00 84 1003.0
20210621234914 76 211 1.0 6.0 0.00 0.00 0.00 83 1003.0
20210621234412 76 190 1.0 6.0 0.00 0.00 0.00 83 1003.1
20210621233906 76 210 1.0 6.0 0.00 0.00 0.00 83 1003.1
20210621233400 77 217 1.0 5.0 0.00 0.00 0.00 83 1003.1
20210621232854 77 217 1.0 5.0 0.00 0.00 0.00 83 1003.1
20210621232345 77 219 1.0 5.0 0.00 0.00 0.00 82 1003.1
20210621231843 77 221 1.0 5.0 0.00 0.00 0.00 82 1003.1
20210621231330 77 224 3.0 9.0 0.00 0.00 0.00 82 1002.5
20210621230830 77 225 3.0 9.0 0.00 0.00 0.00 82 1002.5
20210621230325 77 186 1.0 6.0 0.00 0.00 0.00 82 1002.5
20210621225818 78 186 1.0 6.0 0.00 0.00 0.00 82 1002.2
20210621225312 78 203 1.0 6.0 0.00 0.00 0.00 81 1002.2
20210621224807 78 193 1.0 6.0 0.00 0.00 0.00 82 1002.2
20210621224259 77 192 3.0 6.0 0.00 0.00 0.00 82 1002.5
20210621223759 77 226 3.0 6.0 0.00 0.00 0.00 82 1002.5
20210621223259 77 175 3.0 6.0 0.00 0.00 0.00 82 1002.5
20210621222755 77 186 1.0 6.0 0.00 0.00 0.00 81 1002.8
20210621222255 77 206 0.0 6.0 0.00 0.00 0.00 81 1002.8
20210621221745 78 207 0.0 6.0 0.00 0.00 0.00 81 1002.8
20210621221244 78 185 1.0 8.0 0.00 0.00 0.00 81 1002.8
20210621220736 78 180 1.0 8.0 0.00 0.00 0.00 81 1002.8
20210621220236 78 193 0.0 5.0 0.00 0.00 0.00 81 1003.1
20210621215736 78 193 1.0 9.0 0.00 0.00 0.00 81 1003.1
20210621215237 78 224 3.0 9.0 0.00 0.00 0.00 81 1003.1
20210621214715 78 164 1.0 8.0 0.00 0.00 0.00 81 1003.1
20210621214207 78 212 1.0 5.0 0.00 0.00 0.00 81 1003.1
20210621213709 78 212 3.0 6.0 0.00 0.00 0.00 82 1003.1
20210621213208 78 213 1.0 6.0 0.00 0.00 0.00 81 1003.1
20210621212705 78 215 1.0 9.0 0.00 0.00 0.00 82 1003.1
20210621212205 78 228 1.0 9.0 0.00 0.00 0.00 82 1003.1
20210621211703 78 221 1.0 6.0 0.00 0.00 0.00 82 1003.6
20210621211204 78 194 1.0 9.0 0.00 0.00 0.00 82 1003.6
20210621210702 78 217 3.0 9.0 0.00 0.00 0.00 81 1003.6
20210621210202 78 219 3.0 10.0 0.00 0.00 0.00 81 1003.6
20210621205700 78 221 3.0 10.0 0.00 0.00 0.00 81 1003.6
20210621205144 78 215 0.0 4.0 0.00 0.00 0.00 81 1003.6
20210621204631 78 216 1.0 6.0 0.00 0.00 0.00 81 1003.6
20210621204123 78 216 3.0 8.0 0.00 0.00 0.00 80 1003.6
20210621203607 78 210 3.0 9.0 0.00 0.00 0.00 80 1003.6
20210621203057 79 198 1.0 6.0 0.00 0.00 0.00 79 1003.9
20210621202551 79 173 1.0 6.0 0.00 0.00 0.00 79 1004.0
20210621202046 79 173 3.0 8.0 0.00 0.00 0.00 79 1004.0
20210621201540 79 205 3.0 8.0 0.00 0.00 0.00 78 1004.1
20210621201030 80 217 3.0 9.0 0.00 0.00 0.00 77 1004.1
20210621200527 80 221 3.0 11.0 0.00 0.00 0.00 77 1004.1
20210621200022 80 216 3.0 11.0 0.00 0.00 0.00 76 1004.0
20210621195517 80 175 1.0 11.0 0.00 0.00 0.00 76 1004.0
20210621195011 80 215 3.0 13.0 0.00 0.00 0.00 76 1004.0
20210621194503 80 206 5.0 19.0 0.00 0.00 0.00 75 1004.0
20210621193957 81 224 5.0 19.0 0.00 0.00 0.00 74 1004.0
20210621193454 81 219 3.0 8.0 0.00 0.00 0.00 74 1004.0
20210621192949 81 193 3.0 8.0 0.00 0.00 0.00 74 1004.2
20210621192439 82 173 3.0 9.0 0.00 0.00 0.00 73 1004.2
20210621191933 82 225 3.0 9.0 0.00 0.00 0.00 72 1004.2
20210621191427 82 297 3.0 9.0 0.00 0.00 0.00 73 1004.2
20210621190918 82 219 3.0 9.0 0.00 0.00 0.00 74 1004.2
20210621190418 82 180 1.0 8.0 0.00 0.00 0.00 74 1004.2
20210621185917 82 206 1.0 6.0 0.00 0.00 0.00 74 1004.6
20210621185419 82 212 1.0 15.0 0.00 0.00 0.00 75 1004.6
20210621184907 82 203 1.0 9.0 0.00 0.00 0.00 74 1004.6
20210621184407 82 187 3.0 10.0 0.00 0.00 0.00 73 1004.6
20210621183907 82 223 3.0 14.0 0.00 0.00 0.00 73 1004.6
20210621183406 82 180 4.0 14.0 0.00 0.00 0.00 72 1004.6
20210621182904 82 183 5.0 15.0 0.00 0.00 0.00 72 1004.6
20210621182400 82 191 4.0 15.0 0.00 0.00 0.00 73 1004.6
20210621181859 82 223 3.0 14.0 0.00 0.00 0.00 71 1004.6
20210621181359 82 229 4.0 14.0 0.00 0.00 0.00 72 1004.6
20210621180858 82 200 3.0 14.0 0.00 0.00 0.00 72 1004.6
20210621180357 82 201 3.0 9.0 0.00 0.00 0.00 73 1004.6
20210621175853 82 205 3.0 9.0 0.00 0.00 0.00 72 1004.8
20210621175351 82 138 3.0 9.0 0.00 0.00 0.00 73 1004.8
20210621174849 82 202 3.0 9.0 0.00 0.00 0.00 72 1004.8
20210621174351 82 168 1.0 9.0 0.00 0.00 0.00 73 1005.3
20210621173847 82 192 3.0 9.0 0.00 0.00 0.00 72 1005.3
20210621173348 82 201 4.0 8.0 0.00 0.00 0.00 72 1005.3
20210621172845 82 217 3.0 10.0 0.00 0.00 0.00 71 1005.7
20210621172336 83 227 3.0 10.0 0.00 0.00 0.00 71 1005.7
20210621171833 83 175 3.0 9.0 0.00 0.00 0.00 71 1005.7
20210621171319 83 175 3.0 9.0 0.00 0.00 0.00 70 1005.9
20210621170814 83 174 3.0 14.0 0.00 0.00 0.00 70 1005.9
20210621170306 82 205 4.0 14.0 0.00 0.00 0.00 70 1005.9
20210621165805 82 229 4.0 14.0 0.00 0.00 0.00 70 1006.3
20210621165259 82 174 4.0 10.0 0.00 0.00 0.00 69 1006.3
20210621164747 83 210 3.0 14.0 0.00 0.00 0.00 67 1006.3
20210621164248 83 225 3.0 14.0 0.00 0.00 0.00 67 1006.2
20210621163723 83 188 1.0 6.0 0.00 0.00 0.00 67 1006.2
20210621163211 83 185 3.0 9.0 0.00 0.00 0.00 66 1006.3
20210621162659 83 192 3.0 9.0 0.00 0.00 0.00 65 1006.3
20210621162151 83 135 1.0 6.0 0.00 0.00 0.00 67 1006.3
20210621161635 82 221 3.0 8.0 0.00 0.00 0.00 68 1006.3
20210621161124 82 214 4.0 8.0 0.00 0.00 0.00 68 1006.3
20210621160617 83 200 3.0 9.0 0.00 0.00 0.00 69 1006.3
20210621160110 83 138 3.0 9.0 0.00 0.00 0.00 70 1006.4
20210621155608 83 224 3.0 9.0 0.00 0.00 0.00 70 1006.4
20210621155058 82 235 3.0 14.0 0.00 0.00 0.00 68 1006.4
20210621154553 83 219 3.0 9.0 0.00 0.00 0.00 68 1006.7
20210621154044 83 129 3.0 8.0 0.00 0.00 0.00 69 1006.7
20210621153544 83 221 1.0 8.0 0.00 0.00 0.00 69 1006.7
20210621153035 83 232 0.0 6.0 0.00 0.00 0.00 72 1006.8
20210621152536 83 234 0.0 5.0 0.00 0.00 0.00 70 1006.8
20210621152022 82 228 1.0 9.0 0.00 0.00 0.00 72 1006.8
20210621151513 82 229 3.0 9.0 0.00 0.00 0.00 72 1006.8
20210621151011 82 166 3.0 9.0 0.00 0.00 0.00 74 1006.8
20210621150511 82 216 1.0 6.0 0.00 0.00 0.00 76 1006.8
20210621150012 81 207 1.0 8.0 0.00 0.00 0.00 76 1007.0
20210621145508 80 225 1.0 8.0 0.00 0.00 0.00 77 1006.9
20210621145002 80 224 3.0 11.0 0.00 0.00 0.00 79 1006.9
20210621144451 80 207 1.0 11.0 0.00 0.00 0.00 79 1007.0
20210621143951 80 186 0.0 5.0 0.00 0.00 0.00 81 1007.0
20210621143430 79 187 0.0 5.0 0.00 0.00 0.00 81 1007.0
20210621142922 78 201 1.0 4.0 0.00 0.00 0.00 81 1007.3
20210621142416 78 201 1.0 6.0 0.00 0.00 0.00 81 1007.3
20210621141911 78 221 1.0 6.0 0.00 0.00 0.00 81 1007.3
20210621141407 78 217 1.0 6.0 0.00 0.00 0.00 82 1007.3
20210621140902 78 144 1.0 5.0 0.00 0.00 0.00 82 1007.3
20210621140354 77 144 1.0 5.0 0.00 0.00 0.00 82 1007.3
20210621135846 77 143 1.0 5.0 0.00 0.00 0.00 83 1007.3
20210621135344 77 185 1.0 5.0 0.00 0.00 0.00 84 1007.3
20210621134838 76 186 1.0 5.0 0.00 0.00 0.00 84 1007.3
20210621134328 76 223 1.0 6.0 0.00 0.00 0.00 84 1007.5
20210621133822 76 223 1.0 6.0 0.00 0.00 0.00 84 1007.5
20210621133317 76 207 0.0 3.0 0.00 0.00 0.00 85 1007.5
20210621132810 76 210 0.0 3.0 0.00 0.00 0.00 85 1007.8
20210621132305 75 210 0.0 5.0 0.00 0.00 0.00 86 1007.8
20210621131800 75 211 0.0 4.0 0.00 0.00 0.00 87 1007.8
20210621131247 75 210 1.0 5.0 0.00 0.00 0.00 87 1007.8
20210621130746 75 211 1.0 5.0 0.00 0.00 0.00 87 1007.8
20210621130240 74 210 1.0 6.0 0.00 0.00 0.00 87 1007.8
20210621125734 74 215 0.0 6.0 0.00 0.00 0.00 88 1007.8
20210621125228 74 205 1.0 5.0 0.00 0.00 0.00 88 1007.8
20210621124719 74 205 0.0 5.0 0.00 0.00 0.00 88 1007.8
20210621124211 74 177 0.0 0.0 0.00 0.00 0.00 89 1007.8
20210621123658 74 177 0.0 1.0 0.00 0.00 0.00 89 1007.8
20210621123146 73 177 0.0 1.0 0.00 0.00 0.00 90 1007.8
20210621122636 73 177 0.0 1.0 0.00 0.00 0.00 91 1007.8
20210621122123 73 177 0.0 3.0 0.00 0.00 0.00 91 1007.8
20210621121610 73 177 0.0 5.0 0.00 0.00 0.00 91 1008.0
20210621121100 72 177 0.0 5.0 0.00 0.00 0.00 91 1008.0
20210621120543 72 177 0.0 1.0 0.00 0.00 0.00 93 1008.0
20210621120029 72 177 0.0 1.0 0.00 0.00 0.00 93 1008.1
20210621115526 71 176 0.0 1.0 0.00 0.00 0.00 93 1008.0
20210621115025 71 176 0.0 1.0 0.00 0.00 0.00 93 1008.0
20210621114458 71 177 0.0 4.0 0.00 0.00 0.00 94 1008.1
20210621113947 71 177 0.0 4.0 0.00 0.00 0.00 94 1008.1
20210621113431 71 177 0.0 4.0 0.00 0.00 0.00 94 1008.1
20210621112927 71 177 0.0 1.0 0.00 0.00 0.00 94 1007.8
20210621112412 71 177 0.0 1.0 0.00 0.00 0.00 95 1007.8
20210621111904 70 137 0.0 5.0 0.00 0.00 0.00 95 1007.8
20210621111359 70 137 0.0 5.0 0.00 0.00 0.00 95 1007.8
20210621110858 70 227 0.0 1.0 0.00 0.00 0.00 95 1007.8
20210621110351 70 227 0.0 1.0 0.00 0.00 0.00 96 1007.8
20210621105840 70 227 0.0 0.0 0.00 0.00 0.00 96 1007.8
20210621105331 69 227 0.0 0.0 0.00 0.00 0.00 96 1007.8
20210621104811 69 227 0.0 0.0 0.00 0.00 0.00 96 1007.8
20210621104312 69 227 0.0 0.0 0.00 0.00 0.00 96 1007.8
20210621103731 69 227 0.0 0.0 0.00 0.00 0.00 97 1007.8
20210621103157 69 227 0.0 0.0 0.00 0.00 0.00 97 1007.8
20210621102640 69 227 0.0 1.0 0.00 0.00 0.00 97 1007.8
20210621102136 69 227 0.0 1.0 0.00 0.00 0.00 97 1007.8
20210621101613 68 227 0.0 0.0 0.00 0.00 0.00 97 1007.8
20210621101103 68 227 0.0 0.0 0.00 0.00 0.00 97 1007.8
20210621100555 68 227 0.0 3.0 0.00 0.00 0.00 97 1007.8
20210621100047 68 227 0.0 3.0 0.00 0.00 0.00 97 1007.8
20210621095533 68 227 0.0 0.0 0.00 0.00 0.00 97 1007.8
20210621095027 68 227 0.0 0.0 0.00 0.00 0.00 98 1007.8
20210621094520 67 227 0.0 0.0 0.00 0.00 0.00 97 1007.8
20210621094021 67 227 0.0 0.0 0.00 0.00 0.00 97 1007.8
20210621093521 67 227 0.0 0.0 0.00 0.00 0.00 97 1007.8
20210621092949 67 227 0.0 0.0 0.00 0.00 0.00 97 1007.9
20210621092446 67 227 0.0 0.0 0.00 0.00 0.00 97 1007.9
20210621091941 67 227 0.0 0.0 0.00 0.00 0.00 97 1007.9
20210621091437 67 227 0.0 0.0 0.00 0.00 0.00 97 1008.0
20210621090911 67 227 0.0 0.0 0.00 0.00 0.00 97 1008.0
20210621090408 67 227 0.0 0.0 0.00 0.00 0.00 97 1008.0
20210621085852 67 227 0.0 0.0 0.00 0.00 0.00 97 1007.9
20210621085345 67 227 0.0 0.0 0.00 0.00 0.00 97 1007.9
20210621084828 67 227 0.0 0.0 0.00 0.00 0.00 96 1007.9
20210621084325 67 227 0.0 0.0 0.00 0.00 0.00 96 1007.7
20210621083803 67 227 0.0 0.0 0.00 0.00 0.00 96 1007.7
20210621083301 67 227 0.0 0.0 0.00 0.00 0.00 96 1007.7
20210621082741 67 227 0.0 0.0 0.00 0.00 0.00 96 1007.7
20210621082238 67 227 0.0 0.0 0.00 0.00 0.00 96 1007.7
20210621081719 67 227 0.0 0.0 0.00 0.00 0.00 96 1007.7
20210621081205 67 227 0.0 0.0 0.00 0.00 0.00 96 1007.7
20210621080703 67 227 0.0 0.0 0.00 0.00 0.00 95 1007.7
20210621080157 67 227 0.0 0.0 0.00 0.00 0.00 95 1007.6
20210621075646 67 227 0.0 0.0 0.00 0.00 0.00 95 1007.6
20210621075133 67 227 0.0 0.0 0.00 0.00 0.00 95 1007.6
20210621074622 67 227 0.0 0.0 0.00 0.00 0.00 94 1007.7
20210621074119 67 227 0.0 0.0 0.00 0.00 0.00 94 1007.7
20210621073612 67 227 0.0 0.0 0.00 0.00 0.00 94 1007.7
20210621073101 68 227 0.0 0.0 0.00 0.00 0.00 94 1007.6
20210621072539 68 227 0.0 0.0 0.00 0.00 0.00 93 1007.6
20210621072028 68 227 0.0 0.0 0.00 0.00 0.00 93 1007.6
20210621071526 68 227 0.0 0.0 0.00 0.00 0.00 93 1007.7
20210621071013 68 227 0.0 0.0 0.00 0.00 0.00 93 1007.7
20210621070507 69 227 0.0 0.0 0.00 0.00 0.00 92 1007.7
20210621070006 69 227 0.0 0.0 0.00 0.00 0.00 92 1007.7
20210621065504 69 227 0.0 0.0 0.00 0.00 0.00 92 1007.7
20210621064948 69 227 0.0 0.0 0.00 0.00 0.00 92 1007.7
20210621064443 69 227 0.0 0.0 0.00 0.00 0.00 91 1007.8
20210621063933 69 227 0.0 0.0 0.00 0.00 0.00 91 1007.8
20210621063430 69 227 0.0 0.0 0.00 0.00 0.00 91 1007.8
20210621062924 69 227 0.0 0.0 0.00 0.00 0.00 91 1008.1
20210621062413 69 227 0.0 0.0 0.00 0.00 0.00 91 1008.1
20210621061914 69 227 0.0 0.0 0.00 0.00 0.00 90 1008.1
20210621061403 70 227 0.0 0.0 0.00 0.00 0.00 90 1008.0
20210621060852 70 227 0.0 0.0 0.00 0.00 0.00 90 1008.0
20210621060342 70 227 0.0 0.0 0.00 0.00 0.00 90 1008.0
20210621055839 70 227 0.0 0.0 0.00 0.00 0.00 89 1008.2
20210621055332 70 227 0.0 0.0 0.00 0.00 0.00 89 1008.2
20210621054837 70 227 0.0 0.0 0.00 0.00 0.00 89 1008.2
20210621054320 70 227 0.0 0.0 0.00 0.00 0.00 89 1008.2
20210621053815 70 227 0.0 0.0 0.00 0.00 0.00 88 1008.2
20210621053309 70 227 0.0 0.0 0.00 0.00 0.00 88 1008.2
20210621052808 70 227 0.0 0.0 0.00 0.00 0.00 87 1008.2
20210621052259 70 227 0.0 0.0 0.00 0.00 0.00 86 1008.2
20210621051752 71 227 0.0 0.0 0.00 0.00 0.00 86 1008.2
20210621051240 71 227 0.0 0.0 0.00 0.00 0.00 85 1008.2
20210621050717 71 227 0.0 0.0 0.00 0.00 0.00 85 1008.2
20210621050217 71 227 0.0 0.0 0.00 0.00 0.00 84 1008.6
20210621045659 71 227 0.0 0.0 0.00 0.00 0.00 84 1008.6
20210621045154 71 227 0.0 0.0 0.00 0.00 0.00 84 1008.6
20210621044631 71 227 0.0 0.0 0.00 0.00 0.00 83 1008.7
20210621044122 71 227 0.0 0.0 0.00 0.00 0.00 83 1008.7
20210621043617 72 227 0.0 0.0 0.00 0.00 0.00 83 1008.7